Location: Kansas State University
(39.1938°N, 96.5858°W)
Time: 08:58:42
(UTC-06:00)

Daily predictions for brighter satellites

Satellite Brightness Start Highest point End
(mag) Time Altitude Azimuth Time Altitude Azimuth Time Altitude Azimuth
NOSS 0 Rocket 4.4 17:50:52 10° S 17:56:44 45° ESE 18:02:35 10° NE
Meteor 2-2 Rocket 4.3 17:52:39 10° N 17:58:12 58° ENE 18:03:45 10° SSE
Cosmos 1980 4.2 17:53:16 10° S 17:58:29 40° ESE 18:03:45 10° NE
Cosmos 2084 3.3 17:58:48 10° SSW 18:02:41 61° ESE 18:06:27 10° NE
Cosmos 540 Rocket 4.1 17:59:06 10° SSE 18:03:49 37° ESE 18:08:34 10° NE
OTV 4 0.9 18:03:09 10° W 18:06:05 59° S 18:08:59 10° ESE
Cosmos 44 3.8 18:02:52 10° S 18:07:55 46° ESE 18:12:47 10° NE
SJ-6B 4.5 18:06:21 10° ESE 18:08:45 15° ENE 18:11:11 10° NNE
ALOS 4.1 18:08:38 10° ENE 18:09:43 11° ENE 18:10:48 10° NE
CORIOLIS 4.2 18:05:25 10° SSE 18:10:45 86° WSW 18:16:09 10° NNW
USA 215 3.7 18:05:05 10° E 18:11:07 41° NNE 18:17:11 10° NW
Cosmos 2333 Rocket 2.2 18:07:33 10° S 18:13:06 64° ESE 18:18:43 10° NNE
Resurs 01 Rocket 3.4 18:17:34 11° ENE 18:17:58 11° ENE 18:19:27 10° NE
Cosmos 371 Rocket 3.3 18:15:09 10° SSW 18:19:57 85° ESE 18:24:47 10° NNE
YAOGAN 1 3.2 18:16:23 10° S 18:20:39 62° W 18:24:58 10° NNW
COSMO-SKYMED 1 2.6 18:16:49 10° NNE 18:21:06 58° E 18:25:22 10° S
Cosmos 2219 Rocket 2.3 18:16:46 10° SSW 18:22:25 83° WNW 18:28:05 10° NNE
Cosmos 2058 3.4 18:19:39 10° SSE 18:23:27 37° E 18:27:15 10° NNE
Atlas Centaur 2 4.2 18:20:36 10° WSW 18:23:54 16° SSW 18:26:49 10° SSE
SPOT 3 Rocket 4.3 18:22:35 10° S 18:27:38 57° W 18:32:44 10° NNW
Thor Agena Rocket 4.2 18:23:02 10° N 18:28:13 60° WNW 18:33:17 10° SSW
Cosmos 1125 Rocket 3.4 18:23:42 10° NNW 18:28:53 65° ENE 18:34:01 10° SSE
SMAP 4.4 18:25:01 10° S 18:29:26 44° W 18:33:55 10° NNW
FREGAT/IRIS 4.4 18:28:00 10° ESE 18:32:18 10° NNE 18:32:21 10° NNE
Cosmos 2278 Rocket 2.2 18:25:21 10° NNW 18:30:58 57° ENE 18:36:32 10° SE
Cosmos 2228 Rocket 4.0 18:26:46 10° NNW 18:31:04 52° W 18:35:22 10° S
Cosmos 1626 3.5 18:30:44 10° SE 18:33:26 19° E 18:34:02 19° ENE
Meteor 1-27 4.4 18:29:02 10° N 18:34:43 53° ENE 18:40:24 10° SSE
Cosmos 1340 Rocket 3.2 18:33:21 10° SSE 18:37:04 40° E 18:40:46 10° NNE
Cosmos 2279 Rocket 4.0 18:30:59 10° N 18:37:05 56° E 18:43:10 10° SSE
NOAA 12 4.3 18:34:51 10° SE 18:39:51 48° ENE 18:44:54 10° N
Cosmos 44 Rocket 3.9 18:35:07 10° SW 18:40:10 58° NW 18:45:10 10° NNE
Cosmos 1844 4.2 18:36:55 10° NNW 18:42:39 66° WSW 18:48:22 10° S
SL-14 R/B 3.2 18:39:19 10° S 18:43:13 87° W 18:47:12 10° N
BREEZE-M DEB (TANK) 2.3 18:42:52 10° WSW 18:45:37 39° NNW 18:46:31 25° NNE
Cosmos 1356 Rocket 4.2 18:43:22 10° SSE 18:46:46 27° E 18:47:32 25° ENE
Cosmos 1484 Rocket 3.6 18:43:48 10° S 18:47:37 54° W 18:51:31 10° NNW
Lacrosse 5 4.2 18:48:09 10° NNW 18:49:52 12° NNW 18:51:35 10° N
Cosmos 1726 2.6 18:47:34 10° NNW 18:51:18 65° W 18:55:02 10° S
CENTAUR R/B 4.0 18:46:04 10° WSW 18:51:33 32° NW 18:57:42 10° NNE
Cosmos 2237 Rocket 2.4 18:49:02 10° SSW 18:54:39 75° WNW 19:00:19 10° NNE
Cosmos 2151 3.4 18:50:40 10° SSW 18:54:49 63° W 18:59:00 10° N
Cosmos 1300 3.3 18:51:40 10° NNW 18:55:27 59° W 18:59:13 10° S
Nadezhda 4 Rocket 4.3 18:50:27 10° SSE 18:56:16 43° E 19:02:10 10° NNE
Cosmos 2180 Rocket 4.4 18:51:16 10° N 18:57:25 67° E 19:03:35 10° SSE
ORS 1 (USA 231) 4.5 18:55:07 10° W 18:58:17 78° N 18:59:00 50° E
SL-16 R/B 2.3 18:54:38 10° S 19:00:04 51° ESE 19:03:37 21° NE
Cosmos 304 Rocket 3.7 18:58:42 10° S 19:03:27 67° ESE 19:06:45 20° NNE
Aureole 2 Rocket 2.7 19:00:56 10° SSW 19:04:32 76° WNW 19:07:20 18° NNE
Iridium 4 Rocket 4.5 19:00:50 10° SE 19:03:08 23° ESE 19:03:08 23° ESE
Timation 1 Rocket 4.3 19:03:35 10° NNW 19:09:34 63° ENE 19:15:31 10° SE
Cosmos 1151 Rocket 4.5 19:06:24 10° NNW 19:10:22 39° W 19:14:21 10° SSW
Cosmos 1805 Rocket 3.5 19:06:41 10° S 19:11:08 83° E 19:15:35 10° N
Cosmos 2297 3.7 19:05:37 10° NNW 19:11:15 58° ENE 19:16:52 10° SE
Abrixas 2.6 19:08:22 10° WSW 19:11:15 63° NNW 19:11:15 63° NNW
Cosmos 1092 Rocket 4.3 19:08:42 10° SSE 19:14:36 43° E 19:20:04 12° NNE
Lacrosse 5 rocket 1.1 19:11:47 10° NW 19:15:36 68° NE 19:16:06 60° E
Sich 1 3.0 19:28:25 10° S 19:32:51 88° W 19:34:13 45° N
Cosmos 773 Rocket 4.0 19:28:45 10° S 19:33:30 55° ESE 19:33:30 55° ESE
Cosmos 1633 Rocket 2.9 19:33:03 10° S 19:37:28 90° WNW 19:37:48 76° N
OTV 4 3.1 19:39:33 10° WSW 19:41:02 18° SW 19:41:02 18° SW
SJ-6B 4.2 19:39:13 10° S 19:43:03 41° W 19:46:58 10° NNW
FengYun 1-2 T 4.2 19:37:48 10° SSE 19:43:23 87° WSW 19:48:57 10° NNW
FENGYUN 3A 3.6 19:40:59 10° SSE 19:46:20 87° WSW 19:51:45 10° NNW
ALOS 2.3 19:41:48 10° S 19:46:28 79° WSW 19:51:09 10° NNW
BREEZE-M DEB (TANK) 4.5 19:45:50 10° S 20:15:13 - NE 19:49:16 37° SE
Resurs 01 Rocket 2.4 19:55:07 45° NW 19:55:07 45° NW 19:58:17 10° NNW
USA 215 3.6 19:49:19 20° SSE 19:53:55 63° SW 20:00:25 10° NW
Cosmos 1461 3.8 19:51:09 10° SW 19:54:49 45° WNW 19:54:49 45° WNW
Cosmos 2333 Rocket 4.5 19:53:54 10° W 19:57:51 19° NW 20:01:50 10° N
Cosmos 1626 4.4 20:05:39 10° SW 20:08:40 23° WNW 20:08:48 23° WNW
Spot 2 Rocket 4.5 20:11:51 10° S 20:16:40 45° W 20:21:30 10° NNW
USA 229 DEB 4.0 20:30:59 10° SW 20:37:00 62° W 20:37:00 62° W
USA 229 4.0 20:31:05 10° SW 20:37:03 62° W 20:37:03 62° W
H-2A ROCKET BODY 3.9 20:28:07 10° WSW 20:39:02 32° SSW 20:39:02 32° SSW
SL-16 R/B 4.1 20:40:03 10° WSW 20:44:29 23° NW 20:45:34 22° NW
